Index of /20260430/WXO-DD/model_gdps/15km/12/000
Name Last modified Size Description
Parent Directory -
20260430T12Z_MSC_GDPS_AbsoluteVorticity_IsbL-0200_LatLon0.15_PT000H.grib2 2026-04-30 15:50 1.2M
20260430T12Z_MSC_GDPS_AbsoluteVorticity_IsbL-0250_LatLon0.15_PT000H.grib2 2026-04-30 15:50 1.3M
20260430T12Z_MSC_GDPS_AbsoluteVorticity_IsbL-0500_LatLon0.15_PT000H.grib2 2026-04-30 15:50 1.5M
20260430T12Z_MSC_GDPS_AbsoluteVorticity_IsbL-0700_LatLon0.15_PT000H.grib2 2026-04-30 15:50 1.6M
20260430T12Z_MSC_GDPS_AbsoluteVorticity_IsbL-0850_LatLon0.15_PT000H.grib2 2026-04-30 15:50 1.6M
20260430T12Z_MSC_GDPS_AirTemp_AGL-120m_LatLon0.15_PT000H.grib2 2026-04-30 15:50 787K
20260430T12Z_MSC_GDPS_AirTemp_AGL-2m_LatLon0.15_PT000H.grib2 2026-04-30 15:50 1.0M
20260430T12Z_MSC_GDPS_AirTemp_AGL-40m_LatLon0.15_PT000H.grib2 2026-04-30 15:50 806K
20260430T12Z_MSC_GDPS_AirTemp_AGL-80m_LatLon0.15_PT000H.grib2 2026-04-30 15:50 796K
20260430T12Z_MSC_GDPS_AirTemp_IsbL-0001_LatLon0.15_PT000H.grib2 2026-04-30 15:50 661K
20260430T12Z_MSC_GDPS_AirTemp_IsbL-0005_LatLon0.15_PT000H.grib2 2026-04-30 15:50 681K
20260430T12Z_MSC_GDPS_AirTemp_IsbL-0010_LatLon0.15_PT000H.grib2 2026-04-30 15:50 765K
20260430T12Z_MSC_GDPS_AirTemp_IsbL-0020_LatLon0.15_PT000H.grib2 2026-04-30 15:50 788K
20260430T12Z_MSC_GDPS_AirTemp_IsbL-0030_LatLon0.15_PT000H.grib2 2026-04-30 15:50 755K
20260430T12Z_MSC_GDPS_AirTemp_IsbL-0050_LatLon0.15_PT000H.grib2 2026-04-30 15:50 807K
20260430T12Z_MSC_GDPS_AirTemp_IsbL-0100_LatLon0.15_PT000H.grib2 2026-04-30 15:50 1.0M
20260430T12Z_MSC_GDPS_AirTemp_IsbL-0150_LatLon0.15_PT000H.grib2 2026-04-30 15:50 1.0M
20260430T12Z_MSC_GDPS_AirTemp_IsbL-0175_LatLon0.15_PT000H.grib2 2026-04-30 15:50 964K
20260430T12Z_MSC_GDPS_AirTemp_IsbL-0200_LatLon0.15_PT000H.grib2 2026-04-30 15:50 1.0M
20260430T12Z_MSC_GDPS_AirTemp_IsbL-0225_LatLon0.15_PT000H.grib2 2026-04-30 15:50 1.0M
20260430T12Z_MSC_GDPS_AirTemp_IsbL-0250_LatLon0.15_PT000H.grib2 2026-04-30 15:50 1.0M
20260430T12Z_MSC_GDPS_AirTemp_IsbL-0275_LatLon0.15_PT000H.grib2 2026-04-30 15:50 1.0M
20260430T12Z_MSC_GDPS_AirTemp_IsbL-0300_LatLon0.15_PT000H.grib2 2026-04-30 15:50 1.0M
20260430T12Z_MSC_GDPS_AirTemp_IsbL-0350_LatLon0.15_PT000H.grib2 2026-04-30 15:50 939K
20260430T12Z_MSC_GDPS_AirTemp_IsbL-0400_LatLon0.15_PT000H.grib2 2026-04-30 15:50 948K
20260430T12Z_MSC_GDPS_AirTemp_IsbL-0450_LatLon0.15_PT000H.grib2 2026-04-30 15:50 970K
20260430T12Z_MSC_GDPS_AirTemp_IsbL-0500_LatLon0.15_PT000H.grib2 2026-04-30 15:50 772K
20260430T12Z_MSC_GDPS_AirTemp_IsbL-0550_LatLon0.15_PT000H.grib2 2026-04-30 15:50 811K
20260430T12Z_MSC_GDPS_AirTemp_IsbL-0600_LatLon0.15_PT000H.grib2 2026-04-30 15:50 903K
20260430T12Z_MSC_GDPS_AirTemp_IsbL-0650_LatLon0.15_PT000H.grib2 2026-04-30 15:50 933K
20260430T12Z_MSC_GDPS_AirTemp_IsbL-0700_LatLon0.15_PT000H.grib2 2026-04-30 15:50 967K
20260430T12Z_MSC_GDPS_AirTemp_IsbL-0750_LatLon0.15_PT000H.grib2 2026-04-30 15:50 1.0M
20260430T12Z_MSC_GDPS_AirTemp_IsbL-0800_LatLon0.15_PT000H.grib2 2026-04-30 15:50 1.1M
20260430T12Z_MSC_GDPS_AirTemp_IsbL-0850_LatLon0.15_PT000H.grib2 2026-04-30 15:50 1.1M
20260430T12Z_MSC_GDPS_AirTemp_IsbL-0875_LatLon0.15_PT000H.grib2 2026-04-30 15:50 1.2M
20260430T12Z_MSC_GDPS_AirTemp_IsbL-0900_LatLon0.15_PT000H.grib2 2026-04-30 15:50 1.1M
20260430T12Z_MSC_GDPS_AirTemp_IsbL-0925_LatLon0.15_PT000H.grib2 2026-04-30 15:50 1.1M
20260430T12Z_MSC_GDPS_AirTemp_IsbL-0950_LatLon0.15_PT000H.grib2 2026-04-30 15:50 1.1M
20260430T12Z_MSC_GDPS_AirTemp_IsbL-0970_LatLon0.15_PT000H.grib2 2026-04-30 15:50 1.2M
20260430T12Z_MSC_GDPS_AirTemp_IsbL-0985_LatLon0.15_PT000H.grib2 2026-04-30 15:50 1.1M
20260430T12Z_MSC_GDPS_AirTemp_IsbL-1000_LatLon0.15_PT000H.grib2 2026-04-30 15:50 1.1M
20260430T12Z_MSC_GDPS_AirTemp_IsbL-1015_LatLon0.15_PT000H.grib2 2026-04-30 15:50 1.1M
20260430T12Z_MSC_GDPS_Albedo_Sfc_LatLon0.15_PT000H.grib2 2026-04-30 15:50 242K
20260430T12Z_MSC_GDPS_CAPE_Sfc_LatLon0.15_PT000H.grib2 2026-04-30 15:50 3.9M
20260430T12Z_MSC_GDPS_CIN_Sfc_LatLon0.15_PT000H.grib2 2026-04-30 15:50 2.9M
20260430T12Z_MSC_GDPS_CloudWater_EAtm_LatLon0.15_PT000H.grib2 2026-04-30 15:50 529K
20260430T12Z_MSC_GDPS_ConvectivePrecip-Accum_Sfc_LatLon0.15_PT000H.grib2 2026-04-30 15:50 205
20260430T12Z_MSC_GDPS_DewPointDepression_AGL-2m_LatLon0.15_PT000H.grib2 2026-04-30 15:50 814K
20260430T12Z_MSC_GDPS_DewPointDepression_IsbL-0010_LatLon0.15_PT000H.grib2 2026-04-30 15:50 57K
20260430T12Z_MSC_GDPS_DewPointDepression_IsbL-0020_LatLon0.15_PT000H.grib2 2026-04-30 15:50 65K
20260430T12Z_MSC_GDPS_DewPointDepression_IsbL-0030_LatLon0.15_PT000H.grib2 2026-04-30 15:50 71K
20260430T12Z_MSC_GDPS_DewPointDepression_IsbL-0050_LatLon0.15_PT000H.grib2 2026-04-30 15:50 369K
20260430T12Z_MSC_GDPS_DewPointDepression_IsbL-0100_LatLon0.15_PT000H.grib2 2026-04-30 15:50 420K
20260430T12Z_MSC_GDPS_DewPointDepression_IsbL-0150_LatLon0.15_PT000H.grib2 2026-04-30 15:50 471K
20260430T12Z_MSC_GDPS_DewPointDepression_IsbL-0175_LatLon0.15_PT000H.grib2 2026-04-30 15:50 566K
20260430T12Z_MSC_GDPS_DewPointDepression_IsbL-0200_LatLon0.15_PT000H.grib2 2026-04-30 15:50 691K
20260430T12Z_MSC_GDPS_DewPointDepression_IsbL-0225_LatLon0.15_PT000H.grib2 2026-04-30 15:50 811K
20260430T12Z_MSC_GDPS_DewPointDepression_IsbL-0250_LatLon0.15_PT000H.grib2 2026-04-30 15:50 894K
20260430T12Z_MSC_GDPS_DewPointDepression_IsbL-0275_LatLon0.15_PT000H.grib2 2026-04-30 15:50 899K
20260430T12Z_MSC_GDPS_DewPointDepression_IsbL-0300_LatLon0.15_PT000H.grib2 2026-04-30 15:50 939K
20260430T12Z_MSC_GDPS_DewPointDepression_IsbL-0350_LatLon0.15_PT000H.grib2 2026-04-30 15:50 960K
20260430T12Z_MSC_GDPS_DewPointDepression_IsbL-0400_LatLon0.15_PT000H.grib2 2026-04-30 15:50 1.0M
20260430T12Z_MSC_GDPS_DewPointDepression_IsbL-0450_LatLon0.15_PT000H.grib2 2026-04-30 15:50 1.0M
20260430T12Z_MSC_GDPS_DewPointDepression_IsbL-0500_LatLon0.15_PT000H.grib2 2026-04-30 15:50 1.0M
20260430T12Z_MSC_GDPS_DewPointDepression_IsbL-0550_LatLon0.15_PT000H.grib2 2026-04-30 15:50 1.0M
20260430T12Z_MSC_GDPS_DewPointDepression_IsbL-0600_LatLon0.15_PT000H.grib2 2026-04-30 15:50 1.0M
20260430T12Z_MSC_GDPS_DewPointDepression_IsbL-0650_LatLon0.15_PT000H.grib2 2026-04-30 15:50 1.1M
20260430T12Z_MSC_GDPS_DewPointDepression_IsbL-0700_LatLon0.15_PT000H.grib2 2026-04-30 15:50 1.1M
20260430T12Z_MSC_GDPS_DewPointDepression_IsbL-0750_LatLon0.15_PT000H.grib2 2026-04-30 15:50 1.1M
20260430T12Z_MSC_GDPS_DewPointDepression_IsbL-0800_LatLon0.15_PT000H.grib2 2026-04-30 15:50 1.2M
20260430T12Z_MSC_GDPS_DewPointDepression_IsbL-0850_LatLon0.15_PT000H.grib2 2026-04-30 15:50 1.2M
20260430T12Z_MSC_GDPS_DewPointDepression_IsbL-0875_LatLon0.15_PT000H.grib2 2026-04-30 15:50 1.1M
20260430T12Z_MSC_GDPS_DewPointDepression_IsbL-0900_LatLon0.15_PT000H.grib2 2026-04-30 15:50 1.1M
20260430T12Z_MSC_GDPS_DewPointDepression_IsbL-0925_LatLon0.15_PT000H.grib2 2026-04-30 15:50 1.0M
20260430T12Z_MSC_GDPS_DewPointDepression_IsbL-0950_LatLon0.15_PT000H.grib2 2026-04-30 15:50 1.0M
20260430T12Z_MSC_GDPS_DewPointDepression_IsbL-0970_LatLon0.15_PT000H.grib2 2026-04-30 15:50 1.0M
20260430T12Z_MSC_GDPS_DewPointDepression_IsbL-0985_LatLon0.15_PT000H.grib2 2026-04-30 15:50 1.0M
20260430T12Z_MSC_GDPS_DewPointDepression_IsbL-1000_LatLon0.15_PT000H.grib2 2026-04-30 15:50 1.0M
20260430T12Z_MSC_GDPS_DewPointDepression_IsbL-1015_LatLon0.15_PT000H.grib2 2026-04-30 15:50 947K
20260430T12Z_MSC_GDPS_DewPoint_AGL-2m_LatLon0.15_PT000H.grib2 2026-04-30 15:50 636K
20260430T12Z_MSC_GDPS_DownwardLongwaveRadiationFlux-Accum_Sfc_LatLon0.15_PT000H.grib2 2026-04-30 15:50 205
20260430T12Z_MSC_GDPS_DownwardShortwaveRadiationFlux-Accum_NTAtm_LatLon0.15_PT000H.grib2 2026-04-30 15:50 205
20260430T12Z_MSC_GDPS_DownwardShortwaveRadiationFlux-Accum_Sfc_LatLon0.15_PT000H.grib2 2026-04-30 15:50 205
20260430T12Z_MSC_GDPS_GeopotentialHeight_IsbL-0001_LatLon0.15_PT000H.grib2 2026-04-30 15:50 458K
20260430T12Z_MSC_GDPS_GeopotentialHeight_IsbL-0005_LatLon0.15_PT000H.grib2 2026-04-30 15:50 515K
20260430T12Z_MSC_GDPS_GeopotentialHeight_IsbL-0010_LatLon0.15_PT000H.grib2 2026-04-30 15:50 505K
20260430T12Z_MSC_GDPS_GeopotentialHeight_IsbL-0020_LatLon0.15_PT000H.grib2 2026-04-30 15:50 445K
20260430T12Z_MSC_GDPS_GeopotentialHeight_IsbL-0030_LatLon0.15_PT000H.grib2 2026-04-30 15:50 448K
20260430T12Z_MSC_GDPS_GeopotentialHeight_IsbL-0050_LatLon0.15_PT000H.grib2 2026-04-30 15:50 607K
20260430T12Z_MSC_GDPS_GeopotentialHeight_IsbL-0100_LatLon0.15_PT000H.grib2 2026-04-30 15:50 632K
20260430T12Z_MSC_GDPS_GeopotentialHeight_IsbL-0150_LatLon0.15_PT000H.grib2 2026-04-30 15:50 648K
20260430T12Z_MSC_GDPS_GeopotentialHeight_IsbL-0175_LatLon0.15_PT000H.grib2 2026-04-30 15:50 489K
20260430T12Z_MSC_GDPS_GeopotentialHeight_IsbL-0200_LatLon0.15_PT000H.grib2 2026-04-30 15:50 656K
20260430T12Z_MSC_GDPS_GeopotentialHeight_IsbL-0225_LatLon0.15_PT000H.grib2 2026-04-30 15:50 653K
20260430T12Z_MSC_GDPS_GeopotentialHeight_IsbL-0250_LatLon0.15_PT000H.grib2 2026-04-30 15:50 660K
20260430T12Z_MSC_GDPS_GeopotentialHeight_IsbL-0275_LatLon0.15_PT000H.grib2 2026-04-30 15:50 660K
20260430T12Z_MSC_GDPS_GeopotentialHeight_IsbL-0300_LatLon0.15_PT000H.grib2 2026-04-30 15:50 659K
20260430T12Z_MSC_GDPS_GeopotentialHeight_IsbL-0350_LatLon0.15_PT000H.grib2 2026-04-30 15:50 652K
20260430T12Z_MSC_GDPS_GeopotentialHeight_IsbL-0400_LatLon0.15_PT000H.grib2 2026-04-30 15:50 642K
20260430T12Z_MSC_GDPS_GeopotentialHeight_IsbL-0450_LatLon0.15_PT000H.grib2 2026-04-30 15:50 633K
20260430T12Z_MSC_GDPS_GeopotentialHeight_IsbL-0500_LatLon0.15_PT000H.grib2 2026-04-30 15:50 555K
20260430T12Z_MSC_GDPS_GeopotentialHeight_IsbL-0550_LatLon0.15_PT000H.grib2 2026-04-30 15:50 545K
20260430T12Z_MSC_GDPS_GeopotentialHeight_IsbL-0600_LatLon0.15_PT000H.grib2 2026-04-30 15:50 542K
20260430T12Z_MSC_GDPS_GeopotentialHeight_IsbL-0650_LatLon0.15_PT000H.grib2 2026-04-30 15:50 715K
20260430T12Z_MSC_GDPS_GeopotentialHeight_IsbL-0700_LatLon0.15_PT000H.grib2 2026-04-30 15:50 715K
20260430T12Z_MSC_GDPS_GeopotentialHeight_IsbL-0750_LatLon0.15_PT000H.grib2 2026-04-30 15:50 712K
20260430T12Z_MSC_GDPS_GeopotentialHeight_IsbL-0800_LatLon0.15_PT000H.grib2 2026-04-30 15:50 723K
20260430T12Z_MSC_GDPS_GeopotentialHeight_IsbL-0850_LatLon0.15_PT000H.grib2 2026-04-30 15:50 727K
20260430T12Z_MSC_GDPS_GeopotentialHeight_IsbL-0875_LatLon0.15_PT000H.grib2 2026-04-30 15:50 724K
20260430T12Z_MSC_GDPS_GeopotentialHeight_IsbL-0900_LatLon0.15_PT000H.grib2 2026-04-30 15:50 728K
20260430T12Z_MSC_GDPS_GeopotentialHeight_IsbL-0925_LatLon0.15_PT000H.grib2 2026-04-30 15:50 736K
20260430T12Z_MSC_GDPS_GeopotentialHeight_IsbL-0950_LatLon0.15_PT000H.grib2 2026-04-30 15:50 742K
20260430T12Z_MSC_GDPS_GeopotentialHeight_IsbL-0970_LatLon0.15_PT000H.grib2 2026-04-30 15:50 754K
20260430T12Z_MSC_GDPS_GeopotentialHeight_IsbL-0985_LatLon0.15_PT000H.grib2 2026-04-30 15:50 769K
20260430T12Z_MSC_GDPS_GeopotentialHeight_IsbL-1000_LatLon0.15_PT000H.grib2 2026-04-30 15:50 791K
20260430T12Z_MSC_GDPS_GeopotentialHeight_IsbL-1015_LatLon0.15_PT000H.grib2 2026-04-30 15:50 816K
20260430T12Z_MSC_GDPS_GeopotentialHeight_Sfc_LatLon0.15_PT000H.grib2 2026-04-30 15:50 707K
20260430T12Z_MSC_GDPS_Humidex_Sfc_LatLon0.15_PT000H.grib2 2026-04-30 15:50 5.4M
20260430T12Z_MSC_GDPS_KIndex_Sfc_LatLon0.15_PT000H.grib2 2026-04-30 15:50 6.5M
20260430T12Z_MSC_GDPS_LandWaterProportion_Sfc_LatLon0.15_PT000H.grib2 2026-04-30 15:50 239K
20260430T12Z_MSC_GDPS_LatentHeatNetFlux_Sfc_LatLon0.15_PT000H.grib2 2026-04-30 15:50 590K
20260430T12Z_MSC_GDPS_LiftedIndex-MU-VT_IsbL-0500_LatLon0.15_PT000H.grib2 2026-04-30 15:50 5.4M
20260430T12Z_MSC_GDPS_NetLongwaveRadiationFlux-Accum_Sfc_LatLon0.15_PT000H.grib2 2026-04-30 15:50 205
20260430T12Z_MSC_GDPS_NetShortwaveRadiationFlux-Accum_Sfc_LatLon0.15_PT000H.grib2 2026-04-30 15:50 205
20260430T12Z_MSC_GDPS_O3MixingRatio_Sfc_LatLon0.15_PT000H.grib2 2026-04-30 16:43 2.4M
20260430T12Z_MSC_GDPS_O3_EAtm_LatLon0.15_PT000H.grib2 2026-04-30 16:43 2.5M
20260430T12Z_MSC_GDPS_PlanetaryBoundaryLayerHeight_Sfc_LatLon0.15_PT000H.grib2 2026-04-30 15:50 2.4M
20260430T12Z_MSC_GDPS_PrecipType-Instant_Sfc_LatLon0.15_PT000H.grib2 2026-04-30 15:50 181
20260430T12Z_MSC_GDPS_Pressure_MSL_LatLon0.15_PT000H.grib2 2026-04-30 15:50 725K
20260430T12Z_MSC_GDPS_Pressure_PVU-1.5_LatLon0.15_PT000H.grib2 2026-04-30 15:50 5.8M
20260430T12Z_MSC_GDPS_Pressure_PVU-1_LatLon0.15_PT000H.grib2 2026-04-30 15:50 6.0M
20260430T12Z_MSC_GDPS_Pressure_PVU-2_LatLon0.15_PT000H.grib2 2026-04-30 15:50 5.6M
20260430T12Z_MSC_GDPS_Pressure_Sfc_LatLon0.15_PT000H.grib2 2026-04-30 15:50 1.1M
20260430T12Z_MSC_GDPS_RadiativeTemp_Sfc_LatLon0.15_PT000H.grib2 2026-04-30 15:50 483K
20260430T12Z_MSC_GDPS_RelativeHumidity_AGL-2m_LatLon0.15_PT000H.grib2 2026-04-30 15:50 1.1M
20260430T12Z_MSC_GDPS_RelativeHumidity_IsbL-0010_LatLon0.15_PT000H.grib2 2026-04-30 15:50 205K
20260430T12Z_MSC_GDPS_RelativeHumidity_IsbL-0020_LatLon0.15_PT000H.grib2 2026-04-30 15:50 175K
20260430T12Z_MSC_GDPS_RelativeHumidity_IsbL-0030_LatLon0.15_PT000H.grib2 2026-04-30 15:50 272K
20260430T12Z_MSC_GDPS_RelativeHumidity_IsbL-0050_LatLon0.15_PT000H.grib2 2026-04-30 15:50 420K
20260430T12Z_MSC_GDPS_RelativeHumidity_IsbL-0100_LatLon0.15_PT000H.grib2 2026-04-30 15:50 518K
20260430T12Z_MSC_GDPS_RelativeHumidity_IsbL-0150_LatLon0.15_PT000H.grib2 2026-04-30 15:50 662K
20260430T12Z_MSC_GDPS_RelativeHumidity_IsbL-0175_LatLon0.15_PT000H.grib2 2026-04-30 15:50 775K
20260430T12Z_MSC_GDPS_RelativeHumidity_IsbL-0200_LatLon0.15_PT000H.grib2 2026-04-30 15:50 692K
20260430T12Z_MSC_GDPS_RelativeHumidity_IsbL-0225_LatLon0.15_PT000H.grib2 2026-04-30 15:50 787K
20260430T12Z_MSC_GDPS_RelativeHumidity_IsbL-0250_LatLon0.15_PT000H.grib2 2026-04-30 15:50 866K
20260430T12Z_MSC_GDPS_RelativeHumidity_IsbL-0275_LatLon0.15_PT000H.grib2 2026-04-30 15:50 884K
20260430T12Z_MSC_GDPS_RelativeHumidity_IsbL-0300_LatLon0.15_PT000H.grib2 2026-04-30 15:50 928K
20260430T12Z_MSC_GDPS_RelativeHumidity_IsbL-0350_LatLon0.15_PT000H.grib2 2026-04-30 15:50 948K
20260430T12Z_MSC_GDPS_RelativeHumidity_IsbL-0400_LatLon0.15_PT000H.grib2 2026-04-30 15:50 973K
20260430T12Z_MSC_GDPS_RelativeHumidity_IsbL-0450_LatLon0.15_PT000H.grib2 2026-04-30 15:50 1.0M
20260430T12Z_MSC_GDPS_RelativeHumidity_IsbL-0500_LatLon0.15_PT000H.grib2 2026-04-30 15:50 1.0M
20260430T12Z_MSC_GDPS_RelativeHumidity_IsbL-0550_LatLon0.15_PT000H.grib2 2026-04-30 15:50 1.1M
20260430T12Z_MSC_GDPS_RelativeHumidity_IsbL-0600_LatLon0.15_PT000H.grib2 2026-04-30 15:50 1.1M
20260430T12Z_MSC_GDPS_RelativeHumidity_IsbL-0650_LatLon0.15_PT000H.grib2 2026-04-30 15:50 1.1M
20260430T12Z_MSC_GDPS_RelativeHumidity_IsbL-0700_LatLon0.15_PT000H.grib2 2026-04-30 15:50 1.2M
20260430T12Z_MSC_GDPS_RelativeHumidity_IsbL-0750_LatLon0.15_PT000H.grib2 2026-04-30 15:50 1.2M
20260430T12Z_MSC_GDPS_RelativeHumidity_IsbL-0800_LatLon0.15_PT000H.grib2 2026-04-30 15:50 1.3M
20260430T12Z_MSC_GDPS_RelativeHumidity_IsbL-0850_LatLon0.15_PT000H.grib2 2026-04-30 15:50 1.3M
20260430T12Z_MSC_GDPS_RelativeHumidity_IsbL-0875_LatLon0.15_PT000H.grib2 2026-04-30 15:50 1.3M
20260430T12Z_MSC_GDPS_RelativeHumidity_IsbL-0900_LatLon0.15_PT000H.grib2 2026-04-30 15:50 1.2M
20260430T12Z_MSC_GDPS_RelativeHumidity_IsbL-0925_LatLon0.15_PT000H.grib2 2026-04-30 15:50 1.2M
20260430T12Z_MSC_GDPS_RelativeHumidity_IsbL-0950_LatLon0.15_PT000H.grib2 2026-04-30 15:50 1.2M
20260430T12Z_MSC_GDPS_RelativeHumidity_IsbL-0970_LatLon0.15_PT000H.grib2 2026-04-30 15:50 1.2M
20260430T12Z_MSC_GDPS_RelativeHumidity_IsbL-0985_LatLon0.15_PT000H.grib2 2026-04-30 15:50 1.1M
20260430T12Z_MSC_GDPS_RelativeHumidity_IsbL-1000_LatLon0.15_PT000H.grib2 2026-04-30 15:50 1.1M
20260430T12Z_MSC_GDPS_RelativeHumidity_IsbL-1015_LatLon0.15_PT000H.grib2 2026-04-30 15:50 1.1M
20260430T12Z_MSC_GDPS_RelativeVorticity_IsbL-0200_LatLon0.15_PT000H.grib2 2026-04-30 15:50 1.5M
20260430T12Z_MSC_GDPS_RelativeVorticity_IsbL-0250_LatLon0.15_PT000H.grib2 2026-04-30 15:50 1.3M
20260430T12Z_MSC_GDPS_RelativeVorticity_IsbL-0500_LatLon0.15_PT000H.grib2 2026-04-30 15:50 1.5M
20260430T12Z_MSC_GDPS_RelativeVorticity_IsbL-0700_LatLon0.15_PT000H.grib2 2026-04-30 15:50 1.6M
20260430T12Z_MSC_GDPS_RelativeVorticity_IsbL-0850_LatLon0.15_PT000H.grib2 2026-04-30 15:50 1.6M
20260430T12Z_MSC_GDPS_Runoff-Accum_Sfc_LatLon0.15_PT000H.grib2 2026-04-30 15:50 181
20260430T12Z_MSC_GDPS_SeaIceFraction_Sfc_LatLon0.15_PT000H.grib2 2026-04-30 15:50 256K
20260430T12Z_MSC_GDPS_SeaWaterTemp_Sfc_LatLon0.15_PT000H.grib2 2026-04-30 15:50 902K
20260430T12Z_MSC_GDPS_SensibleHeatNetFlux_Sfc_LatLon0.15_PT000H.grib2 2026-04-30 15:50 672K
20260430T12Z_MSC_GDPS_ShowalterIndex_IsbL-0500_LatLon0.15_PT000H.grib2 2026-04-30 15:50 6.2M
20260430T12Z_MSC_GDPS_SnowDensity_Sfc_LatLon0.15_PT000H.grib2 2026-04-30 15:50 247K
20260430T12Z_MSC_GDPS_SnowDepth_Sfc_LatLon0.15_PT000H.grib2 2026-04-30 15:50 1.7M
20260430T12Z_MSC_GDPS_SoilTemp_DBS-0to10cm_LatLon0.15_PT000H.grib2 2026-04-30 15:50 491K
20260430T12Z_MSC_GDPS_SoilTemp_Sfc_LatLon0.15_PT000H.grib2 2026-04-30 15:50 554K
20260430T12Z_MSC_GDPS_SoilVolumetricIceContent_Sfc_LatLon0.15_PT000H.grib2 2026-04-30 15:50 208K
20260430T12Z_MSC_GDPS_SoilVolumetricWaterContent_DBS-0to10cm_LatLon0.15_PT000H.grib2 2026-04-30 15:50 520K
20260430T12Z_MSC_GDPS_SoilVolumetricWaterContent_DBS-0to1cm_LatLon0.15_PT000H.grib2 2026-04-30 15:50 550K
20260430T12Z_MSC_GDPS_SpecificHumidity_AGL-120m_LatLon0.15_PT000H.grib2 2026-04-30 15:50 1.1M
20260430T12Z_MSC_GDPS_SpecificHumidity_AGL-2m_LatLon0.15_PT000H.grib2 2026-04-30 15:50 1.3M
20260430T12Z_MSC_GDPS_SpecificHumidity_AGL-40m_LatLon0.15_PT000H.grib2 2026-04-30 15:50 1.1M
20260430T12Z_MSC_GDPS_SpecificHumidity_AGL-80m_LatLon0.15_PT000H.grib2 2026-04-30 15:50 1.1M
20260430T12Z_MSC_GDPS_SpecificHumidity_IsbL-0001_LatLon0.15_PT000H.grib2 2026-04-30 15:50 1.1M
20260430T12Z_MSC_GDPS_SpecificHumidity_IsbL-0005_LatLon0.15_PT000H.grib2 2026-04-30 15:50 1.3M
20260430T12Z_MSC_GDPS_SpecificHumidity_IsbL-0010_LatLon0.15_PT000H.grib2 2026-04-30 15:50 1.4M
20260430T12Z_MSC_GDPS_SpecificHumidity_IsbL-0020_LatLon0.15_PT000H.grib2 2026-04-30 15:50 1.4M
20260430T12Z_MSC_GDPS_SpecificHumidity_IsbL-0030_LatLon0.15_PT000H.grib2 2026-04-30 15:50 1.4M
20260430T12Z_MSC_GDPS_SpecificHumidity_IsbL-0050_LatLon0.15_PT000H.grib2 2026-04-30 15:50 1.7M
20260430T12Z_MSC_GDPS_SpecificHumidity_IsbL-0100_LatLon0.15_PT000H.grib2 2026-04-30 15:50 1.1M
20260430T12Z_MSC_GDPS_SpecificHumidity_IsbL-0150_LatLon0.15_PT000H.grib2 2026-04-30 15:50 1.2M
20260430T12Z_MSC_GDPS_SpecificHumidity_IsbL-0175_LatLon0.15_PT000H.grib2 2026-04-30 15:50 1.3M
20260430T12Z_MSC_GDPS_SpecificHumidity_IsbL-0200_LatLon0.15_PT000H.grib2 2026-04-30 15:50 1.3M
20260430T12Z_MSC_GDPS_SpecificHumidity_IsbL-0225_LatLon0.15_PT000H.grib2 2026-04-30 15:50 1.3M
20260430T12Z_MSC_GDPS_SpecificHumidity_IsbL-0250_LatLon0.15_PT000H.grib2 2026-04-30 15:50 1.4M
20260430T12Z_MSC_GDPS_SpecificHumidity_IsbL-0275_LatLon0.15_PT000H.grib2 2026-04-30 15:50 1.3M
20260430T12Z_MSC_GDPS_SpecificHumidity_IsbL-0300_LatLon0.15_PT000H.grib2 2026-04-30 15:50 1.2M
20260430T12Z_MSC_GDPS_SpecificHumidity_IsbL-0350_LatLon0.15_PT000H.grib2 2026-04-30 15:50 1.5M
20260430T12Z_MSC_GDPS_SpecificHumidity_IsbL-0400_LatLon0.15_PT000H.grib2 2026-04-30 15:50 1.5M
20260430T12Z_MSC_GDPS_SpecificHumidity_IsbL-0450_LatLon0.15_PT000H.grib2 2026-04-30 15:50 1.6M
20260430T12Z_MSC_GDPS_SpecificHumidity_IsbL-0500_LatLon0.15_PT000H.grib2 2026-04-30 15:50 1.4M
20260430T12Z_MSC_GDPS_SpecificHumidity_IsbL-0550_LatLon0.15_PT000H.grib2 2026-04-30 15:50 1.6M
20260430T12Z_MSC_GDPS_SpecificHumidity_IsbL-0600_LatLon0.15_PT000H.grib2 2026-04-30 15:50 1.7M
20260430T12Z_MSC_GDPS_SpecificHumidity_IsbL-0650_LatLon0.15_PT000H.grib2 2026-04-30 15:50 1.5M
20260430T12Z_MSC_GDPS_SpecificHumidity_IsbL-0700_LatLon0.15_PT000H.grib2 2026-04-30 15:50 1.6M
20260430T12Z_MSC_GDPS_SpecificHumidity_IsbL-0750_LatLon0.15_PT000H.grib2 2026-04-30 15:50 1.7M
20260430T12Z_MSC_GDPS_SpecificHumidity_IsbL-0800_LatLon0.15_PT000H.grib2 2026-04-30 15:50 1.8M
20260430T12Z_MSC_GDPS_SpecificHumidity_IsbL-0850_LatLon0.15_PT000H.grib2 2026-04-30 15:50 1.9M
20260430T12Z_MSC_GDPS_SpecificHumidity_IsbL-0875_LatLon0.15_PT000H.grib2 2026-04-30 15:50 1.9M
20260430T12Z_MSC_GDPS_SpecificHumidity_IsbL-0900_LatLon0.15_PT000H.grib2 2026-04-30 15:50 1.6M
20260430T12Z_MSC_GDPS_SpecificHumidity_IsbL-0925_LatLon0.15_PT000H.grib2 2026-04-30 15:50 1.6M
20260430T12Z_MSC_GDPS_SpecificHumidity_IsbL-0950_LatLon0.15_PT000H.grib2 2026-04-30 15:50 1.6M
20260430T12Z_MSC_GDPS_SpecificHumidity_IsbL-0970_LatLon0.15_PT000H.grib2 2026-04-30 15:50 1.5M
20260430T12Z_MSC_GDPS_SpecificHumidity_IsbL-0985_LatLon0.15_PT000H.grib2 2026-04-30 15:50 1.5M
20260430T12Z_MSC_GDPS_SpecificHumidity_IsbL-1000_LatLon0.15_PT000H.grib2 2026-04-30 15:50 1.5M
20260430T12Z_MSC_GDPS_SpecificHumidity_IsbL-1015_LatLon0.15_PT000H.grib2 2026-04-30 15:50 1.5M
20260430T12Z_MSC_GDPS_SpecificHumidity_Sfc_LatLon0.15_PT000H.grib2 2026-04-30 15:50 664K
20260430T12Z_MSC_GDPS_Thickness_IsbL-0850to0700_LatLon0.15_PT000H.grib2 2026-04-30 15:50 474K
20260430T12Z_MSC_GDPS_Thickness_IsbL-1000to0500_LatLon0.15_PT000H.grib2 2026-04-30 15:50 373K
20260430T12Z_MSC_GDPS_Thickness_IsbL-1000to0850_LatLon0.15_PT000H.grib2 2026-04-30 15:50 490K
20260430T12Z_MSC_GDPS_TotalCloudCover_Sfc_LatLon0.15_PT000H.grib2 2026-04-30 15:50 791K
20260430T12Z_MSC_GDPS_TotalTotalsIndex_Sfc_LatLon0.15_PT000H.grib2 2026-04-30 15:50 6.2M
20260430T12Z_MSC_GDPS_UVIndex-ClearSky_Sfc_LatLon0.15_PT000H.grib2 2026-04-30 16:43 1.0M
20260430T12Z_MSC_GDPS_UVIndex_Sfc_LatLon0.15_PT000H.grib2 2026-04-30 16:43 1.4M
20260430T12Z_MSC_GDPS_UpwardLongwaveRadiationFlux_NTAtm_LatLon0.15_PT000H.grib2 2026-04-30 15:50 904K
20260430T12Z_MSC_GDPS_VerticalVelocity_IsbL-0200_LatLon0.15_PT000H.grib2 2026-04-30 15:50 1.1M
20260430T12Z_MSC_GDPS_VerticalVelocity_IsbL-0250_LatLon0.15_PT000H.grib2 2026-04-30 15:50 1.3M
20260430T12Z_MSC_GDPS_VerticalVelocity_IsbL-0500_LatLon0.15_PT000H.grib2 2026-04-30 15:50 1.3M
20260430T12Z_MSC_GDPS_VerticalVelocity_IsbL-0600_LatLon0.15_PT000H.grib2 2026-04-30 15:50 1.4M
20260430T12Z_MSC_GDPS_VerticalVelocity_IsbL-0700_LatLon0.15_PT000H.grib2 2026-04-30 15:50 1.1M
20260430T12Z_MSC_GDPS_VerticalVelocity_IsbL-0850_LatLon0.15_PT000H.grib2 2026-04-30 15:50 1.6M
20260430T12Z_MSC_GDPS_WindChill_Sfc_LatLon0.15_PT000H.grib2 2026-04-30 15:50 5.5M
20260430T12Z_MSC_GDPS_WindDir_AGL-10m_LatLon0.15_PT000H.grib2 2026-04-30 15:50 1.4M
20260430T12Z_MSC_GDPS_WindDir_AGL-120m_LatLon0.15_PT000H.grib2 2026-04-30 15:50 1.4M
20260430T12Z_MSC_GDPS_WindDir_AGL-40m_LatLon0.15_PT000H.grib2 2026-04-30 15:50 1.4M
20260430T12Z_MSC_GDPS_WindDir_AGL-80m_LatLon0.15_PT000H.grib2 2026-04-30 15:50 1.4M
20260430T12Z_MSC_GDPS_WindDir_IsbL-0001_LatLon0.15_PT000H.grib2 2026-04-30 15:50 665K
20260430T12Z_MSC_GDPS_WindDir_IsbL-0005_LatLon0.15_PT000H.grib2 2026-04-30 15:50 805K
20260430T12Z_MSC_GDPS_WindDir_IsbL-0010_LatLon0.15_PT000H.grib2 2026-04-30 15:50 853K
20260430T12Z_MSC_GDPS_WindDir_IsbL-0020_LatLon0.15_PT000H.grib2 2026-04-30 15:50 939K
20260430T12Z_MSC_GDPS_WindDir_IsbL-0030_LatLon0.15_PT000H.grib2 2026-04-30 15:50 931K
20260430T12Z_MSC_GDPS_WindDir_IsbL-0050_LatLon0.15_PT000H.grib2 2026-04-30 15:50 947K
20260430T12Z_MSC_GDPS_WindDir_IsbL-0100_LatLon0.15_PT000H.grib2 2026-04-30 15:50 1.0M
20260430T12Z_MSC_GDPS_WindDir_IsbL-0150_LatLon0.15_PT000H.grib2 2026-04-30 15:50 1.0M
20260430T12Z_MSC_GDPS_WindDir_IsbL-0175_LatLon0.15_PT000H.grib2 2026-04-30 15:50 1.1M
20260430T12Z_MSC_GDPS_WindDir_IsbL-0200_LatLon0.15_PT000H.grib2 2026-04-30 15:50 1.1M
20260430T12Z_MSC_GDPS_WindDir_IsbL-0225_LatLon0.15_PT000H.grib2 2026-04-30 15:50 1.1M
20260430T12Z_MSC_GDPS_WindDir_IsbL-0250_LatLon0.15_PT000H.grib2 2026-04-30 15:50 1.1M
20260430T12Z_MSC_GDPS_WindDir_IsbL-0275_LatLon0.15_PT000H.grib2 2026-04-30 15:50 1.2M
20260430T12Z_MSC_GDPS_WindDir_IsbL-0300_LatLon0.15_PT000H.grib2 2026-04-30 15:50 1.2M
20260430T12Z_MSC_GDPS_WindDir_IsbL-0350_LatLon0.15_PT000H.grib2 2026-04-30 15:50 1.2M
20260430T12Z_MSC_GDPS_WindDir_IsbL-0400_LatLon0.15_PT000H.grib2 2026-04-30 15:50 1.3M
20260430T12Z_MSC_GDPS_WindDir_IsbL-0450_LatLon0.15_PT000H.grib2 2026-04-30 15:50 1.3M
20260430T12Z_MSC_GDPS_WindDir_IsbL-0500_LatLon0.15_PT000H.grib2 2026-04-30 15:50 1.3M
20260430T12Z_MSC_GDPS_WindDir_IsbL-0550_LatLon0.15_PT000H.grib2 2026-04-30 15:50 1.4M
20260430T12Z_MSC_GDPS_WindDir_IsbL-0600_LatLon0.15_PT000H.grib2 2026-04-30 15:50 1.5M
20260430T12Z_MSC_GDPS_WindDir_IsbL-0650_LatLon0.15_PT000H.grib2 2026-04-30 15:50 1.6M
20260430T12Z_MSC_GDPS_WindDir_IsbL-0700_LatLon0.15_PT000H.grib2 2026-04-30 15:50 1.6M
20260430T12Z_MSC_GDPS_WindDir_IsbL-0750_LatLon0.15_PT000H.grib2 2026-04-30 15:50 1.7M
20260430T12Z_MSC_GDPS_WindDir_IsbL-0800_LatLon0.15_PT000H.grib2 2026-04-30 15:50 1.8M
20260430T12Z_MSC_GDPS_WindDir_IsbL-0850_LatLon0.15_PT000H.grib2 2026-04-30 15:50 1.9M
20260430T12Z_MSC_GDPS_WindDir_IsbL-0875_LatLon0.15_PT000H.grib2 2026-04-30 15:50 2.0M
20260430T12Z_MSC_GDPS_WindDir_IsbL-0900_LatLon0.15_PT000H.grib2 2026-04-30 15:50 2.0M
20260430T12Z_MSC_GDPS_WindDir_IsbL-0925_LatLon0.15_PT000H.grib2 2026-04-30 15:50 2.0M
20260430T12Z_MSC_GDPS_WindDir_IsbL-0950_LatLon0.15_PT000H.grib2 2026-04-30 15:50 2.0M
20260430T12Z_MSC_GDPS_WindDir_IsbL-0970_LatLon0.15_PT000H.grib2 2026-04-30 15:50 2.0M
20260430T12Z_MSC_GDPS_WindDir_IsbL-0985_LatLon0.15_PT000H.grib2 2026-04-30 15:50 2.0M
20260430T12Z_MSC_GDPS_WindDir_IsbL-1000_LatLon0.15_PT000H.grib2 2026-04-30 15:50 2.1M
20260430T12Z_MSC_GDPS_WindDir_IsbL-1015_LatLon0.15_PT000H.grib2 2026-04-30 15:50 2.1M
20260430T12Z_MSC_GDPS_WindGust-Max_AGL-10m_LatLon0.15_PT000H.grib2 2026-04-30 15:50 2.1M
20260430T12Z_MSC_GDPS_WindGust-Min_AGL-10m_LatLon0.15_PT000H.grib2 2026-04-30 15:50 2.2M
20260430T12Z_MSC_GDPS_WindGust_AGL-10m_LatLon0.15_PT000H.grib2 2026-04-30 15:50 2.2M
20260430T12Z_MSC_GDPS_WindSpeed_AGL-10m_LatLon0.15_PT000H.grib2 2026-04-30 15:50 1.1M
20260430T12Z_MSC_GDPS_WindSpeed_AGL-120m_LatLon0.15_PT000H.grib2 2026-04-30 15:50 1.2M
20260430T12Z_MSC_GDPS_WindSpeed_AGL-40m_LatLon0.15_PT000H.grib2 2026-04-30 15:50 1.2M
20260430T12Z_MSC_GDPS_WindSpeed_AGL-80m_LatLon0.15_PT000H.grib2 2026-04-30 15:50 1.2M
20260430T12Z_MSC_GDPS_WindSpeed_IsbL-0001_LatLon0.15_PT000H.grib2 2026-04-30 15:50 649K
20260430T12Z_MSC_GDPS_WindSpeed_IsbL-0005_LatLon0.15_PT000H.grib2 2026-04-30 15:50 622K
20260430T12Z_MSC_GDPS_WindSpeed_IsbL-0010_LatLon0.15_PT000H.grib2 2026-04-30 15:50 638K
20260430T12Z_MSC_GDPS_WindSpeed_IsbL-0020_LatLon0.15_PT000H.grib2 2026-04-30 15:50 672K
20260430T12Z_MSC_GDPS_WindSpeed_IsbL-0030_LatLon0.15_PT000H.grib2 2026-04-30 15:50 876K
20260430T12Z_MSC_GDPS_WindSpeed_IsbL-0050_LatLon0.15_PT000H.grib2 2026-04-30 15:50 917K
20260430T12Z_MSC_GDPS_WindSpeed_IsbL-0100_LatLon0.15_PT000H.grib2 2026-04-30 15:50 1.1M
20260430T12Z_MSC_GDPS_WindSpeed_IsbL-0150_LatLon0.15_PT000H.grib2 2026-04-30 15:50 1.0M
20260430T12Z_MSC_GDPS_WindSpeed_IsbL-0175_LatLon0.15_PT000H.grib2 2026-04-30 15:50 1.0M
20260430T12Z_MSC_GDPS_WindSpeed_IsbL-0200_LatLon0.15_PT000H.grib2 2026-04-30 15:50 1.1M
20260430T12Z_MSC_GDPS_WindSpeed_IsbL-0225_LatLon0.15_PT000H.grib2 2026-04-30 15:50 1.1M
20260430T12Z_MSC_GDPS_WindSpeed_IsbL-0250_LatLon0.15_PT000H.grib2 2026-04-30 15:50 1.1M
20260430T12Z_MSC_GDPS_WindSpeed_IsbL-0275_LatLon0.15_PT000H.grib2 2026-04-30 15:50 1.1M
20260430T12Z_MSC_GDPS_WindSpeed_IsbL-0300_LatLon0.15_PT000H.grib2 2026-04-30 15:50 1.1M
20260430T12Z_MSC_GDPS_WindSpeed_IsbL-0350_LatLon0.15_PT000H.grib2 2026-04-30 15:50 1.1M
20260430T12Z_MSC_GDPS_WindSpeed_IsbL-0400_LatLon0.15_PT000H.grib2 2026-04-30 15:50 1.1M
20260430T12Z_MSC_GDPS_WindSpeed_IsbL-0450_LatLon0.15_PT000H.grib2 2026-04-30 15:50 1.1M
20260430T12Z_MSC_GDPS_WindSpeed_IsbL-0500_LatLon0.15_PT000H.grib2 2026-04-30 15:50 1.1M
20260430T12Z_MSC_GDPS_WindSpeed_IsbL-0550_LatLon0.15_PT000H.grib2 2026-04-30 15:50 1.1M
20260430T12Z_MSC_GDPS_WindSpeed_IsbL-0600_LatLon0.15_PT000H.grib2 2026-04-30 15:50 1.1M
20260430T12Z_MSC_GDPS_WindSpeed_IsbL-0650_LatLon0.15_PT000H.grib2 2026-04-30 15:50 1.5M
20260430T12Z_MSC_GDPS_WindSpeed_IsbL-0700_LatLon0.15_PT000H.grib2 2026-04-30 15:50 1.5M
20260430T12Z_MSC_GDPS_WindSpeed_IsbL-0750_LatLon0.15_PT000H.grib2 2026-04-30 15:50 1.6M
20260430T12Z_MSC_GDPS_WindSpeed_IsbL-0800_LatLon0.15_PT000H.grib2 2026-04-30 15:50 1.7M
20260430T12Z_MSC_GDPS_WindSpeed_IsbL-0850_LatLon0.15_PT000H.grib2 2026-04-30 15:50 1.7M
20260430T12Z_MSC_GDPS_WindSpeed_IsbL-0875_LatLon0.15_PT000H.grib2 2026-04-30 15:50 1.8M
20260430T12Z_MSC_GDPS_WindSpeed_IsbL-0900_LatLon0.15_PT000H.grib2 2026-04-30 15:50 1.8M
20260430T12Z_MSC_GDPS_WindSpeed_IsbL-0925_LatLon0.15_PT000H.grib2 2026-04-30 15:50 1.9M
20260430T12Z_MSC_GDPS_WindSpeed_IsbL-0950_LatLon0.15_PT000H.grib2 2026-04-30 15:50 1.9M
20260430T12Z_MSC_GDPS_WindSpeed_IsbL-0970_LatLon0.15_PT000H.grib2 2026-04-30 15:50 1.8M
20260430T12Z_MSC_GDPS_WindSpeed_IsbL-0985_LatLon0.15_PT000H.grib2 2026-04-30 15:50 1.8M
20260430T12Z_MSC_GDPS_WindSpeed_IsbL-1000_LatLon0.15_PT000H.grib2 2026-04-30 15:50 1.8M
20260430T12Z_MSC_GDPS_WindSpeed_IsbL-1015_LatLon0.15_PT000H.grib2 2026-04-30 15:50 1.8M
20260430T12Z_MSC_GDPS_WindU_AGL-10m_LatLon0.15_PT000H.grib2 2026-04-30 15:50 1.6M
20260430T12Z_MSC_GDPS_WindU_AGL-120m_LatLon0.15_PT000H.grib2 2026-04-30 15:50 966K
20260430T12Z_MSC_GDPS_WindU_AGL-40m_LatLon0.15_PT000H.grib2 2026-04-30 15:50 958K
20260430T12Z_MSC_GDPS_WindU_AGL-80m_LatLon0.15_PT000H.grib2 2026-04-30 15:50 965K
20260430T12Z_MSC_GDPS_WindU_IsbL-0001_LatLon0.15_PT000H.grib2 2026-04-30 15:50 508K
20260430T12Z_MSC_GDPS_WindU_IsbL-0005_LatLon0.15_PT000H.grib2 2026-04-30 15:50 702K
20260430T12Z_MSC_GDPS_WindU_IsbL-0010_LatLon0.15_PT000H.grib2 2026-04-30 15:50 714K
20260430T12Z_MSC_GDPS_WindU_IsbL-0020_LatLon0.15_PT000H.grib2 2026-04-30 15:50 742K
20260430T12Z_MSC_GDPS_WindU_IsbL-0030_LatLon0.15_PT000H.grib2 2026-04-30 15:50 749K
20260430T12Z_MSC_GDPS_WindU_IsbL-0050_LatLon0.15_PT000H.grib2 2026-04-30 15:50 779K
20260430T12Z_MSC_GDPS_WindU_IsbL-0100_LatLon0.15_PT000H.grib2 2026-04-30 15:50 923K
20260430T12Z_MSC_GDPS_WindU_IsbL-0150_LatLon0.15_PT000H.grib2 2026-04-30 15:50 1.0M
20260430T12Z_MSC_GDPS_WindU_IsbL-0175_LatLon0.15_PT000H.grib2 2026-04-30 15:50 1.0M
20260430T12Z_MSC_GDPS_WindU_IsbL-0200_LatLon0.15_PT000H.grib2 2026-04-30 15:50 847K
20260430T12Z_MSC_GDPS_WindU_IsbL-0225_LatLon0.15_PT000H.grib2 2026-04-30 15:50 859K
20260430T12Z_MSC_GDPS_WindU_IsbL-0250_LatLon0.15_PT000H.grib2 2026-04-30 15:50 861K
20260430T12Z_MSC_GDPS_WindU_IsbL-0275_LatLon0.15_PT000H.grib2 2026-04-30 15:50 890K
20260430T12Z_MSC_GDPS_WindU_IsbL-0300_LatLon0.15_PT000H.grib2 2026-04-30 15:50 880K
20260430T12Z_MSC_GDPS_WindU_IsbL-0350_LatLon0.15_PT000H.grib2 2026-04-30 15:50 896K
20260430T12Z_MSC_GDPS_WindU_IsbL-0400_LatLon0.15_PT000H.grib2 2026-04-30 15:50 900K
20260430T12Z_MSC_GDPS_WindU_IsbL-0450_LatLon0.15_PT000H.grib2 2026-04-30 15:50 1.1M
20260430T12Z_MSC_GDPS_WindU_IsbL-0500_LatLon0.15_PT000H.grib2 2026-04-30 15:50 1.1M
20260430T12Z_MSC_GDPS_WindU_IsbL-0550_LatLon0.15_PT000H.grib2 2026-04-30 15:50 1.1M
20260430T12Z_MSC_GDPS_WindU_IsbL-0600_LatLon0.15_PT000H.grib2 2026-04-30 15:50 1.2M
20260430T12Z_MSC_GDPS_WindU_IsbL-0650_LatLon0.15_PT000H.grib2 2026-04-30 15:50 1.2M
20260430T12Z_MSC_GDPS_WindU_IsbL-0700_LatLon0.15_PT000H.grib2 2026-04-30 15:50 1.2M
20260430T12Z_MSC_GDPS_WindU_IsbL-0750_LatLon0.15_PT000H.grib2 2026-04-30 15:50 1.3M
20260430T12Z_MSC_GDPS_WindU_IsbL-0800_LatLon0.15_PT000H.grib2 2026-04-30 15:50 1.4M
20260430T12Z_MSC_GDPS_WindU_IsbL-0850_LatLon0.15_PT000H.grib2 2026-04-30 15:50 1.4M
20260430T12Z_MSC_GDPS_WindU_IsbL-0875_LatLon0.15_PT000H.grib2 2026-04-30 15:50 1.5M
20260430T12Z_MSC_GDPS_WindU_IsbL-0900_LatLon0.15_PT000H.grib2 2026-04-30 15:50 1.5M
20260430T12Z_MSC_GDPS_WindU_IsbL-0925_LatLon0.15_PT000H.grib2 2026-04-30 15:50 1.5M
20260430T12Z_MSC_GDPS_WindU_IsbL-0950_LatLon0.15_PT000H.grib2 2026-04-30 15:50 1.4M
20260430T12Z_MSC_GDPS_WindU_IsbL-0970_LatLon0.15_PT000H.grib2 2026-04-30 15:50 1.4M
20260430T12Z_MSC_GDPS_WindU_IsbL-0985_LatLon0.15_PT000H.grib2 2026-04-30 15:50 1.7M
20260430T12Z_MSC_GDPS_WindU_IsbL-1000_LatLon0.15_PT000H.grib2 2026-04-30 15:50 1.7M
20260430T12Z_MSC_GDPS_WindU_IsbL-1015_LatLon0.15_PT000H.grib2 2026-04-30 15:50 1.7M
20260430T12Z_MSC_GDPS_WindV_AGL-10m_LatLon0.15_PT000H.grib2 2026-04-30 15:50 1.3M
20260430T12Z_MSC_GDPS_WindV_AGL-120m_LatLon0.15_PT000H.grib2 2026-04-30 15:50 967K
20260430T12Z_MSC_GDPS_WindV_AGL-40m_LatLon0.15_PT000H.grib2 2026-04-30 15:50 958K
20260430T12Z_MSC_GDPS_WindV_AGL-80m_LatLon0.15_PT000H.grib2 2026-04-30 15:50 966K
20260430T12Z_MSC_GDPS_WindV_IsbL-0001_LatLon0.15_PT000H.grib2 2026-04-30 15:50 563K
20260430T12Z_MSC_GDPS_WindV_IsbL-0005_LatLon0.15_PT000H.grib2 2026-04-30 15:50 772K
20260430T12Z_MSC_GDPS_WindV_IsbL-0010_LatLon0.15_PT000H.grib2 2026-04-30 15:50 805K
20260430T12Z_MSC_GDPS_WindV_IsbL-0020_LatLon0.15_PT000H.grib2 2026-04-30 15:50 858K
20260430T12Z_MSC_GDPS_WindV_IsbL-0030_LatLon0.15_PT000H.grib2 2026-04-30 15:50 860K
20260430T12Z_MSC_GDPS_WindV_IsbL-0050_LatLon0.15_PT000H.grib2 2026-04-30 15:50 1.0M
20260430T12Z_MSC_GDPS_WindV_IsbL-0100_LatLon0.15_PT000H.grib2 2026-04-30 15:50 1.1M
20260430T12Z_MSC_GDPS_WindV_IsbL-0150_LatLon0.15_PT000H.grib2 2026-04-30 15:50 1.0M
20260430T12Z_MSC_GDPS_WindV_IsbL-0175_LatLon0.15_PT000H.grib2 2026-04-30 15:50 1.0M
20260430T12Z_MSC_GDPS_WindV_IsbL-0200_LatLon0.15_PT000H.grib2 2026-04-30 15:50 849K
20260430T12Z_MSC_GDPS_WindV_IsbL-0225_LatLon0.15_PT000H.grib2 2026-04-30 15:50 914K
20260430T12Z_MSC_GDPS_WindV_IsbL-0250_LatLon0.15_PT000H.grib2 2026-04-30 15:50 917K
20260430T12Z_MSC_GDPS_WindV_IsbL-0275_LatLon0.15_PT000H.grib2 2026-04-30 15:50 942K
20260430T12Z_MSC_GDPS_WindV_IsbL-0300_LatLon0.15_PT000H.grib2 2026-04-30 15:50 933K
20260430T12Z_MSC_GDPS_WindV_IsbL-0350_LatLon0.15_PT000H.grib2 2026-04-30 15:50 887K
20260430T12Z_MSC_GDPS_WindV_IsbL-0400_LatLon0.15_PT000H.grib2 2026-04-30 15:50 890K
20260430T12Z_MSC_GDPS_WindV_IsbL-0450_LatLon0.15_PT000H.grib2 2026-04-30 15:50 895K
20260430T12Z_MSC_GDPS_WindV_IsbL-0500_LatLon0.15_PT000H.grib2 2026-04-30 15:50 1.1M
20260430T12Z_MSC_GDPS_WindV_IsbL-0550_LatLon0.15_PT000H.grib2 2026-04-30 15:50 1.1M
20260430T12Z_MSC_GDPS_WindV_IsbL-0600_LatLon0.15_PT000H.grib2 2026-04-30 15:50 1.1M
20260430T12Z_MSC_GDPS_WindV_IsbL-0650_LatLon0.15_PT000H.grib2 2026-04-30 15:50 1.2M
20260430T12Z_MSC_GDPS_WindV_IsbL-0700_LatLon0.15_PT000H.grib2 2026-04-30 15:50 1.2M
20260430T12Z_MSC_GDPS_WindV_IsbL-0750_LatLon0.15_PT000H.grib2 2026-04-30 15:50 1.3M
20260430T12Z_MSC_GDPS_WindV_IsbL-0800_LatLon0.15_PT000H.grib2 2026-04-30 15:50 1.4M
20260430T12Z_MSC_GDPS_WindV_IsbL-0850_LatLon0.15_PT000H.grib2 2026-04-30 15:50 1.4M
20260430T12Z_MSC_GDPS_WindV_IsbL-0875_LatLon0.15_PT000H.grib2 2026-04-30 15:50 1.4M
20260430T12Z_MSC_GDPS_WindV_IsbL-0900_LatLon0.15_PT000H.grib2 2026-04-30 15:50 1.4M
20260430T12Z_MSC_GDPS_WindV_IsbL-0925_LatLon0.15_PT000H.grib2 2026-04-30 15:50 1.4M
20260430T12Z_MSC_GDPS_WindV_IsbL-0950_LatLon0.15_PT000H.grib2 2026-04-30 15:50 1.4M
20260430T12Z_MSC_GDPS_WindV_IsbL-0970_LatLon0.15_PT000H.grib2 2026-04-30 15:50 1.4M
20260430T12Z_MSC_GDPS_WindV_IsbL-0985_LatLon0.15_PT000H.grib2 2026-04-30 15:50 1.4M
20260430T12Z_MSC_GDPS_WindV_IsbL-1000_LatLon0.15_PT000H.grib2 2026-04-30 15:50 1.4M
20260430T12Z_MSC_GDPS_WindV_IsbL-1015_LatLon0.15_PT000H.grib2 2026-04-30 15:50 1.4M